GW4240 Weather Reports


Display with metric or nautical units.
time (UTC)temp
F
wind
direction
speed
MPH
gust
MPH
rain 1hr
in
rain 24hr
in
rain mn
in
humidity
%
barometer
mb
20260905095524 54 288 1.0 1.0 0.00 0.00 0.00 96 1016.6
20260905095025 54 288 1.0 1.0 0.00 0.00 0.00 96 1016.7
20260905094547 54 0 0.0 0.0 0.00 0.00 0.00 96 1016.7
20260905094025 54 0 0.0 0.0 0.00 0.00 0.00 96 1016.6
20260905093525 55 0 0.0 0.0 0.00 0.00 0.00 96 1016.7
20260905093053 55 0 0.0 0.0 0.00 0.00 0.00 96 1016.7
20260905092525 55 0 0.0 0.0 0.00 0.00 0.00 96 1016.7
20260905092027 55 0 0.0 0.0 0.00 0.00 0.00 96 1016.7
20260905091553 55 0 0.0 0.0 0.00 0.00 0.00 96 1016.8
20260905091027 55 0 0.0 0.0 0.00 0.00 0.00 96 1016.7
20260905090525 55 0 0.0 0.0 0.00 0.00 0.00 96 1016.7
20260905090048 55 0 0.0 0.0 0.00 0.00 0.00 95 1016.7
20260905085528 55 0 0.0 0.0 0.00 0.00 0.00 96 1016.8
20260905085024 55 0 0.0 0.0 0.00 0.00 0.00 96 1016.8
20260905084548 55 0 0.0 0.0 0.00 0.00 0.00 96 1016.7
20260905084025 55 0 0.0 0.0 0.00 0.00 0.00 96 1016.7
20260905083526 55 0 0.0 0.0 0.00 0.00 0.00 96 1016.7
20260905083047 55 0 0.0 0.0 0.00 0.00 0.00 96 1016.5
20260905082526 55 0 0.0 1.0 0.00 0.00 0.00 96 1016.5
20260905082024 55 0 0.0 1.0 0.00 0.00 0.00 96 1016.4
20260905081556 55 0 0.0 1.0 0.00 0.00 0.00 96 1016.3
20260905081025 55 0 0.0 1.0 0.00 0.00 0.00 95 1016.4
20260905080526 55 281 0.0 1.0 0.00 0.00 0.00 95 1016.3
20260905080048 55 281 0.0 1.0 0.00 0.00 0.00 95 1016.3
20260905075525 55 0 0.0 0.0 0.00 0.00 0.00 95 1016.3
20260905075026 55 0 0.0 0.0 0.00 0.00 0.00 95 1016.5
20260905074549 55 0 0.0 0.0 0.00 0.00 0.00 95 1016.4
20260905074025 55 0 0.0 0.0 0.00 0.00 0.00 95 1016.5
20260905073528 55 0 0.0 0.0 0.00 0.00 0.00 95 1016.4
20260905073048 55 0 0.0 1.0 0.00 0.00 0.00 95 1016.4
20260905072527 55 0 0.0 1.0 0.00 0.00 0.00 95 1016.4
20260905072025 55 281 0.0 1.0 0.00 0.00 0.00 95 1016.4
20260905071553 55 0 0.0 0.0 0.00 0.00 0.00 95 1016.4
20260905071031 56 0 0.0 0.0 0.00 0.00 0.00 95 1016.2
20260905070525 56 0 0.0 0.0 0.00 0.00 0.00 95 1016.3
20260905070052 56 0 0.0 0.0 0.00 0.00 0.00 95 1016.3
20260905065527 56 0 0.0 0.0 0.00 0.00 0.00 95 1016.3
20260905065027 56 0 0.0 0.0 0.00 0.00 0.00 95 1016.2
20260905064552 56 0 0.0 0.0 0.00 0.00 0.00 95 1016.2
20260905064026 56 0 0.0 0.0 0.00 0.00 0.00 95 1016.2
20260905063525 56 0 0.0 0.0 0.00 0.00 0.00 94 1016.2
20260905063048 56 0 0.0 0.0 0.00 0.00 0.00 94 1016.3
20260905062525 56 0 0.0 1.0 0.00 0.00 0.00 94 1016.2
20260905062028 57 0 0.0 1.0 0.00 0.00 0.00 94 1016.2
20260905061606 57 216 0.0 1.0 0.00 0.00 0.00 94 1016.2
20260905061027 57 0 0.0 0.0 0.00 0.00 0.00 94 1016.3
20260905060526 56 0 0.0 0.0 0.00 0.00 0.00 94 1016.1
20260905060058 56 0 0.0 0.0 0.00 0.00 0.00 94 1016.3
20260905055524 57 0 0.0 0.0 0.00 0.00 0.00 94 1016.2
20260905055025 57 0 0.0 0.0 0.00 0.00 0.00 94 1016.3
20260905054551 57 0 0.0 0.0 0.00 0.00 0.00 94 1016.3
20260905054025 57 0 0.0 1.0 0.00 0.00 0.00 94 1016.3
20260905053525 57 0 0.0 1.0 0.00 0.00 0.00 93 1016.2
20260905053048 57 206 0.0 1.0 0.00 0.00 0.00 93 1016.2
20260905052525 57 207 0.0 1.0 0.00 0.00 0.00 93 1016.3
20260905052025 57 206 0.0 1.0 0.00 0.00 0.00 93 1016.2
20260905051546 58 0 0.0 1.0 0.00 0.00 0.00 93 1016.2
20260905051026 58 206 0.0 1.0 0.00 0.00 0.00 94 1016.3
20260905050526 57 0 0.0 1.0 0.00 0.00 0.00 93 1016.1
20260905050051 57 0 0.0 0.0 0.00 0.00 0.00 93 1016.2
20260905045525 58 0 0.0 0.0 0.00 0.00 0.00 93 1016.1
20260905045026 57 289 0.0 0.0 0.00 0.00 0.00 93 1016.2
20260905044549 57 0 0.0 1.0 0.00 0.00 0.00 92 1016.2
20260905044026 57 0 0.0 1.0 0.00 0.00 0.00 92 1016.2
20260905043525 57 0 0.0 1.0 0.00 0.00 0.00 92 1016.1
20260905043052 58 0 0.0 1.0 0.00 0.00 0.00 92 1016.1
20260905042525 58 0 0.0 0.0 0.00 0.00 0.00 92 1016.1
20260905042025 58 0 0.0 0.0 0.00 0.00 0.00 92 1016.1
20260905041544 58 0 0.0 0.0 0.00 0.00 0.00 91 1016.1
20260905041025 58 0 0.0 0.0 0.00 0.00 0.00 91 1016.1
20260905040529 58 0 0.0 0.0 0.00 0.00 0.00 91 1016.1
20260905040058 58 0 0.0 0.0 0.00 0.00 0.00 90 1016.0
20260905035527 59 0 0.0 2.0 0.00 0.00 0.00 90 1016.0
20260905035025 59 0 0.0 3.0 0.00 0.00 0.00 90 1016.1
20260905034550 59 285 1.0 6.0 0.00 0.00 0.00 90 1016.1
20260905034024 59 304 3.0 6.0 0.00 0.00 0.00 90 1016.0
20260905033529 59 303 3.0 5.0 0.00 0.00 0.00 90 1015.8
20260905033051 59 291 3.0 5.0 0.00 0.00 0.00 90 1015.7
20260905032526 59 294 3.0 5.0 0.00 0.00 0.00 89 1015.7
20260905032028 59 297 3.0 5.0 0.00 0.00 0.00 89 1015.7
20260905031549 59 293 3.0 4.0 0.00 0.00 0.00 88 1015.6
20260905031025 60 293 2.0 4.0 0.00 0.00 0.00 88 1015.6
20260905030526 60 271 2.0 4.0 0.00 0.00 0.00 87 1015.5
20260905025524 60 304 3.0 4.0 0.00 0.00 0.00 87 1015.5
20260905025025 60 319 3.0 4.0 0.00 0.00 0.00 86 1015.3
20260905024548 60 309 2.0 3.0 0.00 0.00 0.00 86 1015.2
20260905024025 60 296 1.0 3.0 0.00 0.00 0.00 85 1015.3
20260905023525 61 288 1.0 4.0 0.00 0.00 0.00 85 1015.2
20260905023045 61 287 2.0 4.0 0.00 0.00 0.00 85 1015.2
20260905022525 61 300 3.0 4.0 0.00 0.00 0.00 84 1015.3
20260905022025 61 295 3.0 4.0 0.00 0.00 0.00 83 1015.3
20260905021548 61 288 2.0 4.0 0.00 0.00 0.00 83 1015.3
20260905021025 61 302 2.0 5.0 0.00 0.00 0.00 83 1015.3
20260905020528 61 303 3.0 5.0 0.00 0.00 0.00 83 1015.3
20260905020055 62 292 4.0 5.0 0.00 0.00 0.00 82 1015.2
20260905015525 62 305 3.0 5.0 0.00 0.00 0.00 82 1015.2
20260905015029 62 299 3.0 5.0 0.00 0.00 0.00 82 1015.2
20260905014548 62 289 3.0 5.0 0.00 0.00 0.00 81 1015.1
20260905014025 62 300 3.0 5.0 0.00 0.00 0.00 81 1015.0
20260905013526 62 297 3.0 6.0 0.00 0.00 0.00 82 1015.0
20260905013052 62 278 2.0 6.0 0.00 0.00 0.00 82 1015.1
20260905012523 62 273 3.0 6.0 0.00 0.00 0.00 82 1015.0
20260905012026 62 321 3.0 6.0 0.00 0.00 0.00 82 1014.9
20260905011626 62 300 5.0 6.0 0.00 0.00 0.00 82 1014.9
20260905011025 62 307 3.0 5.0 0.00 0.00 0.00 81 1014.9
20260905010525 63 292 3.0 6.0 0.00 0.00 0.00 82 1014.9
20260905010046 63 296 3.0 6.0 0.00 0.00 0.00 82 1015.0
20260905005525 63 282 4.0 6.0 0.00 0.00 0.00 82 1014.9
20260905005028 62 312 3.0 5.0 0.00 0.00 0.00 83 1014.9
20260905004550 62 300 2.0 4.0 0.00 0.00 0.00 83 1015.0
20260905004025 62 300 2.0 4.0 0.00 0.00 0.00 83 1014.9
20260905003526 62 320 2.0 4.0 0.00 0.00 0.00 83 1014.9
20260905003049 62 330 2.0 6.0 0.00 0.00 0.00 83 1014.7
20260905002526 62 353 1.0 6.0 0.00 0.00 0.00 83 1014.7
20260905002025 62 295 3.0 7.0 0.00 0.00 0.00 83 1014.7
20260905001555 62 302 4.0 8.0 0.00 0.00 0.00 84 1014.7
20260905001025 62 309 4.0 8.0 0.00 0.00 0.00 83 1014.6
20260905000526 62 323 3.0 5.0 0.00 0.00 0.00 83 1014.6
20260905000052 62 313 2.0 5.0 0.00 0.00 0.00 84 1014.5
20260904235524 62 331 2.0 5.0 0.00 0.00 0.00 84 1014.6
20260904235029 62 302 3.0 6.0 0.00 0.00 0.00 83 1014.6
20260904234550 62 316 3.0 6.0 0.00 0.00 0.00 83 1014.6
20260904234028 62 316 3.0 6.0 0.00 0.00 0.00 83 1014.5
20260904233525 62 269 3.0 7.0 0.00 0.00 0.00 83 1014.5
20260904233047 62 312 3.0 7.0 0.00 0.00 0.00 83 1014.3
20260904232526 62 275 5.0 7.0 0.00 0.00 0.00 82 1014.3
20260904232024 62 310 4.0 6.0 0.00 0.00 0.00 82 1014.4
20260904231548 62 276 3.0 6.0 0.00 0.00 0.00 83 1014.4
20260904231024 62 266 4.0 6.0 0.00 0.00 0.00 82 1014.3
20260904230526 62 268 3.0 5.0 0.00 0.00 0.00 83 1014.4
20260904230044 62 307 3.0 5.0 0.00 0.00 0.00 82 1014.5
20260904225525 62 294 2.0 4.0 0.00 0.00 0.00 83 1014.7
20260904225025 61 301 2.0 5.0 0.00 0.00 0.00 84 1014.7
20260904224551 61 269 2.0 5.0 0.00 0.00 0.00 84 1014.9
20260904224025 61 281 3.0 6.0 0.00 0.00 0.00 85 1014.9
20260904223524 61 307 3.0 6.0 0.00 0.00 0.00 85 1014.8
20260904223048 61 283 3.0 6.0 0.00 0.00 0.00 86 1014.8
20260904222526 61 300 3.0 6.0 0.00 0.00 0.00 85 1014.7
20260904222024 61 217 2.0 6.0 0.00 0.00 0.00 86 1014.7
20260904221548 61 245 3.0 6.0 0.00 0.00 0.00 86 1014.7
20260904221025 61 246 4.0 8.0 0.00 0.00 0.00 85 1014.8
20260904220525 61 248 3.0 8.0 0.00 0.00 0.00 86 1014.7
20260904220048 61 262 2.0 7.0 0.00 0.00 0.00 86 1014.7
20260904215528 60 272 4.0 7.0 0.00 0.00 0.00 86 1014.7
20260904215028 61 294 4.0 7.0 0.00 0.00 0.00 85 1014.7
20260904214552 61 290 1.0 6.0 0.00 0.00 0.00 86 1014.6
20260904214028 61 188 2.0 6.0 0.00 0.00 0.00 85 1014.6
20260904213527 61 274 4.0 6.0 0.00 0.00 0.00 83 1014.6
20260904213050 62 257 2.0 5.0 0.00 0.00 0.00 82 1014.6
20260904212531 62 229 2.0 5.0 0.00 0.00 0.00 83 1014.6
20260904212028 62 264 2.0 7.0 0.00 0.00 0.00 83 1014.5
20260904211545 62 259 3.0 9.0 0.00 0.00 0.00 82 1014.5
20260904211025 62 110 3.0 9.0 0.00 0.00 0.00 82 1014.4
20260904210526 63 264 5.0 9.0 0.00 0.00 0.00 80 1014.4
20260904210048 64 276 2.0 6.0 0.00 0.00 0.00 78 1014.4
20260904205530 65 245 2.0 6.0 0.00 0.00 0.00 78 1014.4
20260904205025 66 281 3.0 6.0 0.00 0.00 0.00 75 1014.4
20260904204543 66 267 2.0 5.0 0.00 0.00 0.00 76 1014.4
20260904204024 66 233 1.0 6.0 0.00 0.00 0.00 77 1014.3
20260904203528 65 265 2.0 6.0 0.00 0.00 0.00 78 1014.3
20260904203050 65 316 2.0 6.0 0.00 0.00 0.00 78 1014.2
20260904202525 65 235 1.0 5.0 0.00 0.00 0.00 77 1014.1
20260904202027 66 347 2.0 7.0 0.00 0.00 0.00 76 1014.0
20260904201549 66 95 2.0 7.0 0.00 0.00 0.00 76 1013.9
20260904201025 66 235 2.0 6.0 0.00 0.00 0.00 78 1013.9
20260904200525 65 280 1.0 5.0 0.00 0.00 0.00 78 1013.9
20260904200048 65 255 2.0 6.0 0.00 0.00 0.00 78 1013.9
20260904195525 64 311 2.0 6.0 0.00 0.00 0.00 78 1014.1
20260904195025 65 266 3.0 6.0 0.00 0.00 0.00 76 1014.1
20260904194604 65 250 2.0 6.0 0.00 0.00 0.00 77 1014.1
20260904194026 64 279 2.0 8.0 0.00 0.00 0.00 77 1014.2
20260904193527 64 316 3.0 8.0 0.00 0.00 0.00 76 1014.1
20260904193050 65 15 2.0 6.0 0.00 0.00 0.00 76 1014.3
20260904192525 65 160 2.0 6.0 0.00 0.00 0.00 77 1014.3
20260904192025 64 122 1.0 6.0 0.00 0.00 0.00 79 1014.2
20260904191546 63 154 2.0 5.0 0.00 0.00 0.00 80 1014.2
20260904191025 62 225 1.0 4.0 0.00 0.00 0.00 81 1014.2
20260904190526 62 229 1.0 6.0 0.00 0.00 0.00 81 1014.2
20260904190045 62 114 3.0 7.0 0.00 0.00 0.00 80 1014.1
20260904185526 62 153 3.0 7.0 0.00 0.00 0.00 81 1014.0
20260904185025 62 198 1.0 4.0 0.00 0.00 0.00 82 1014.0
20260904184548 62 168 1.0 4.0 0.00 0.00 0.00 83 1014.1
20260904184026 61 162 1.0 5.0 0.00 0.00 0.00 83 1014.2
20260904183527 62 141 2.0 5.0 0.00 0.00 0.00 82 1014.0
20260904183108 62 210 2.0 4.0 0.00 0.00 0.00 82 1014.0
20260904182526 62 146 2.0 6.0 0.00 0.00 0.00 81 1014.1
20260904182030 62 289 1.0 6.0 0.00 0.00 0.00 82 1014.0
20260904181601 62 200 1.0 6.0 0.00 0.00 0.00 83 1014.0
20260904181024 62 207 1.0 5.0 0.00 0.00 0.00 83 1013.9
20260904180528 62 181 2.0 6.0 0.00 0.00 0.00 84 1014.0
20260904180051 62 166 2.0 6.0 0.00 0.00 0.00 84 1014.0
20260904175525 62 184 1.0 6.0 0.00 0.00 0.00 85 1014.0
20260904175025 61 18 2.0 6.0 0.00 0.00 0.00 84 1014.0
20260904174548 61 122 1.0 4.0 0.00 0.00 0.00 85 1014.0
20260904174027 60 251 1.0 4.0 0.00 0.00 0.00 86 1014.0
20260904173525 59 110 1.0 4.0 0.00 0.00 0.00 88 1013.9
20260904173045 59 153 1.0 4.0 0.00 0.00 0.00 90 1013.9
20260904172525 58 168 1.0 3.0 0.00 0.00 0.00 90 1013.9
20260904172027 58 124 1.0 3.0 0.00 0.00 0.00 91 1013.8
20260904171543 58 156 1.0 4.0 0.00 0.00 0.00 93 1013.7
20260904171026 57 135 2.0 5.0 0.00 0.00 0.00 92 1013.8
20260904170525 56 139 3.0 7.0 0.00 0.00 0.00 92 1013.8
20260904170051 56 136 3.0 7.0 0.00 0.00 0.00 93 1013.9
20260904165526 56 111 4.0 7.0 0.00 0.00 0.00 92 1013.8
20260904165025 56 117 4.0 6.0 0.00 0.00 0.00 94 1013.8
20260904164548 56 98 4.0 6.0 0.00 0.00 0.00 94 1013.7
20260904164025 56 131 3.0 6.0 0.00 0.00 0.00 94 1013.7
20260904163526 55 85 4.0 6.0 0.00 0.00 0.00 95 1013.7
20260904163043 55 118 3.0 6.0 0.00 0.00 0.00 95 1013.6
20260904162525 55 98 3.0 5.0 0.00 0.00 0.00 96 1013.4
20260904162024 55 114 3.0 5.0 0.00 0.00 0.00 96 1013.5
20260904161542 55 98 2.0 4.0 0.00 0.00 0.00 96 1013.4
20260904161026 55 110 2.0 3.0 0.00 0.00 0.00 97 1013.4
20260904160526 54 102 1.0 3.0 0.00 0.00 0.00 97 1013.6
20260904160050 54 79 1.0 3.0 0.00 0.00 0.00 97 1013.6
20260904155525 54 99 2.0 3.0 0.00 0.00 0.00 97 1013.5
20260904155025 54 93 2.0 4.0 0.00 0.00 0.00 97 1013.3
20260904154554 54 87 2.0 4.0 0.00 0.00 0.00 97 1013.3
20260904154027 53 95 2.0 4.0 0.00 0.00 0.00 97 1013.3
20260904153526 53 100 2.0 4.0 0.00 0.00 0.00 97 1013.3
20260904153050 53 115 1.0 2.0 0.00 0.00 0.00 98 1013.2
20260904152529 53 111 1.0 2.0 0.00 0.00 0.00 98 1013.3
20260904152026 53 36 0.0 2.0 0.00 0.00 0.00 97 1013.3
20260904151554 53 82 1.0 3.0 0.00 0.00 0.00 98 1013.2
20260904151026 52 84 1.0 3.0 0.00 0.00 0.00 98 1013.2
20260904150526 52 98 1.0 3.0 0.00 0.00 0.00 98 1013.2
20260904150049 52 106 1.0 2.0 0.00 0.00 0.00 98 1013.0
20260904145525 52 81 1.0 4.0 0.00 0.00 0.00 98 1013.0
20260904145025 52 98 3.0 4.0 0.00 0.00 0.00 98 1012.9
20260904144547 52 76 2.0 3.0 0.00 0.00 0.00 98 1013.0
20260904144029 52 46 1.0 1.0 0.00 0.00 0.00 98 1013.0
20260904143525 51 22 0.0 1.0 0.00 0.00 0.00 98 1012.8
20260904143050 51 0 0.0 1.0 0.00 0.00 0.00 97 1012.8
20260904142525 51 20 1.0 1.0 0.00 0.00 0.00 97 1012.7
20260904142030 51 24 1.0 1.0 0.00 0.00 0.00 98 1012.6
20260904141544 51 24 0.0 1.0 0.00 0.00 0.00 98 1012.5
20260904141025 51 0 0.0 0.0 0.00 0.00 0.00 98 1012.5
20260904140526 51 0 0.0 0.0 0.00 0.00 0.00 98 1012.5
20260904140054 51 0 0.0 1.0 0.00 0.00 0.00 98 1012.3
20260904135526 51 24 0.0 2.0 0.00 0.00 0.00 97 1012.4
20260904135027 51 0 1.0 2.0 0.00 0.00 0.00 97 1012.3
20260904134556 51 339 1.0 2.0 0.00 0.00 0.00 97 1012.4
20260904134025 51 92 0.0 2.0 0.00 0.00 0.00 97 1012.4
20260904133525 51 0 0.0 2.0 0.00 0.00 0.00 98 1012.3
20260904133049 51 94 1.0 2.0 0.00 0.00 0.00 97 1012.3
20260904132527 51 354 1.0 2.0 0.00 0.00 0.00 97 1012.1
20260904132025 51 355 1.0 2.0 0.00 0.00 0.00 97 1012.1
20260904131548 51 51 1.0 2.0 0.00 0.00 0.00 97 1012.2
20260904131028 51 86 0.0 3.0 0.00 0.00 0.00 97 1012.2
20260904130525 51 53 2.0 3.0 0.00 0.00 0.00 97 1012.1
20260904130051 51 8 1.0 2.0 0.00 0.00 0.00 97 1012.1
20260904125526 51 41 1.0 2.0 0.00 0.00 0.00 97 1012.2
20260904125025 51 52 1.0 2.0 0.00 0.00 0.00 97 1012.2
20260904124547 51 68 1.0 1.0 0.00 0.00 0.00 97 1012.1
20260904124025 51 36 0.0 2.0 0.00 0.00 0.00 97 1011.9
20260904123525 51 35 1.0 2.0 0.00 0.00 0.00 97 1012.0
20260904123046 51 39 1.0 2.0 0.00 0.00 0.00 97 1012.0
20260904122526 50 34 1.0 2.0 0.00 0.00 0.00 97 1012.0
20260904122025 50 34 1.0 2.0 0.00 0.00 0.00 97 1011.9
20260904121608 51 45 0.0 1.0 0.00 0.00 0.00 97 1011.7
20260904121025 51 0 0.0 0.0 0.00 0.00 0.00 97 1011.6
20260904120529 50 0 0.0 0.0 0.00 0.00 0.00 97 1011.4
20260904120053 50 0 0.0 0.0 0.00 0.00 0.00 97 1011.2
20260904115525 50 0 0.0 0.0 0.00 0.00 0.00 97 1011.3
20260904115025 50 0 0.0 0.0 0.00 0.00 0.00 97 1011.3
20260904114548 50 0 0.0 0.0 0.00 0.00 0.00 97 1011.2
20260904114026 50 0 0.0 0.0 0.00 0.00 0.00 97 1011.3
20260904113526 50 0 0.0 0.0 0.00 0.00 0.00 97 1011.2
20260904113048 50 0 0.0 0.0 0.00 0.00 0.00 97 1011.1
20260904112526 50 0 0.0 0.0 0.00 0.00 0.00 96 1011.1
20260904112028 50 0 0.0 0.0 0.00 0.00 0.00 97 1011.1
20260904111558 50 0 0.0 0.0 0.00 0.00 0.00 96 1011.2
20260904111026 50 0 0.0 0.0 0.00 0.00 0.00 97 1011.2
20260904110526 50 0 0.0 0.0 0.00 0.00 0.00 97 1011.2
20260904110058 50 0 0.0 0.0 0.00 0.00 0.00 97 1011.1
20260904105526 50 0 0.0 0.0 0.00 0.00 0.00 97 1011.0
20260904105027 50 0 0.0 0.0 0.00 0.00 0.00 97 1011.0
20260904104556 49 0 0.0 0.0 0.00 0.00 0.00 96 1010.9
20260904104028 49 0 0.0 0.0 0.00 0.00 0.00 96 1010.9
20260904103526 49 0 0.0 0.0 0.00 0.00 0.00 96 1010.9
20260904103047 49 0 0.0 0.0 0.00 0.00 0.00 96 1011.0
20260904102526 50 0 0.0 0.0 0.00 0.00 0.00 96 1011.0
20260904102030 50 0 0.0 0.0 0.00 0.00 0.00 96 1010.9
20260904101547 50 0 0.0 0.0 0.00 0.00 0.00 96 1010.9
20260904101026 49 0 0.0 0.0 0.00 0.00 0.00 96 1010.9
20260904100526 50 0 0.0 0.0 0.00 0.00 0.00 96 1010.9
20260904100042 50 0 0.0 0.0 0.00 0.00 0.00 96 1010.8